Date String (YYYY-MM-DD hh:mm:ss) UTC,Instrument flags,Ambient pressure (hPa),Sample flow (lpm),Bypass flow (lpm),Sample temperature (°C),Ambient temperature (°C),ASC tube jacket temperature (°C),LED temperature (°C),Box temperature (°C),Sample RH (%),Span deviation,Mass concentration (μg/m³),Mass concentration (μg/m³),Mass concentration (μg/m³)
DateTimeUTC,F1_M11,P_M11,Q1_M11,Q2_M11,T1_M11,T2_M11,T3_M11,T4_M11,T5_M11,U1_M11,ZSPAN_M11,X0_M11,X2_M11,X1_M11
2022-12-18 06:00:00,,0821.4,5.02,0.00,21.2,19.7,00.0,30.2,22.9,06.0,0000.0,0016.84,0005.35,0004.15
2022-12-18 06:01:00,,0821.4,5.03,0.00,21.2,20.2,00.0,30.1,23.0,06.0,0000.0,0016.65,0005.36,0004.17
2022-12-18 06:02:00,,0821.4,4.96,0.00,21.3,21.3,00.0,30.1,23.3,05.9,0000.0,0016.32,0005.42,0004.22
2022-12-18 06:03:00,,0821.4,5.03,0.00,21.5,21.8,00.0,30.1,23.4,05.9,0000.0,0015.56,0005.41,0004.26
2022-12-18 06:04:00,,0821.4,4.97,0.00,21.5,21.5,00.0,30.2,23.4,05.9,0000.2,0014.94,0005.40,0004.29
2022-12-18 06:05:00,,0821.3,5.04,0.00,21.5,21.0,00.0,30.2,23.4,05.9,0000.5,0015.21,0005.43,0004.33
2022-12-18 06:06:00,,0821.3,4.95,0.00,21.5,20.7,00.0,30.3,23.3,05.9,0002.5,0014.59,0005.42,0004.35
2022-12-18 06:07:00,,0821.3,5.04,0.00,21.5,20.2,00.0,30.3,23.1,06.0,0002.7,0014.43,0005.39,0004.33
2022-12-18 06:08:00,,0821.2,5.02,0.00,21.4,19.8,00.0,30.3,23.0,06.0,0003.3,0014.68,0005.36,0004.30
2022-12-18 06:09:00,,0821.1,4.96,0.00,21.3,19.4,00.0,30.2,22.8,06.1,0001.6,0014.45,0005.29,0004.25
2022-12-18 06:10:00,,0821.1,5.00,0.00,21.2,19.3,00.0,30.2,22.8,06.1,0000.0,0014.28,0005.27,0004.20
2022-12-18 06:11:00,,0821.2,5.04,0.00,21.3,20.3,00.0,30.2,23.0,06.1,0000.0,0014.90,0005.25,0004.14
2022-12-18 06:12:00,,0821.2,4.97,0.00,21.4,21.4,00.0,30.2,23.3,06.0,0000.0,0014.95,0005.16,0004.08
2022-12-18 06:13:00,,0821.1,5.03,0.00,21.5,21.4,00.0,30.2,23.3,06.0,0000.0,0015.35,0005.09,0004.02
2022-12-18 06:14:00,,0821.1,4.96,0.00,21.5,20.9,00.0,30.2,23.2,06.0,0000.0,0015.24,0005.04,0003.93
2022-12-18 06:15:00,,0821.2,5.04,0.00,21.5,20.6,00.0,30.3,23.2,06.0,0000.0,0015.00,0004.98,0003.89
2022-12-18 06:16:00,,0821.1,4.99,0.00,21.4,20.3,00.0,30.3,23.1,06.0,0000.0,0014.01,0004.88,0003.83
2022-12-18 06:17:00,,0821.0,4.98,0.00,21.4,20.1,00.0,30.3,23.1,06.0,0000.0,0014.79,0004.85,0003.80
2022-12-18 06:18:00,,0821.1,5.02,0.00,21.4,19.8,00.0,30.3,23.0,06.0,0000.0,0015.30,0004.83,0003.79
2022-12-18 06:19:00,,0821.2,5.01,0.00,21.3,19.5,00.0,30.3,22.9,06.0,0000.0,0014.87,0004.79,0003.79
2022-12-18 06:20:00,,0821.1,4.97,0.00,21.3,19.4,00.0,30.2,22.9,06.0,0000.0,0015.64,0004.80,0003.81
2022-12-18 06:21:00,,0821.0,5.00,0.00,21.3,19.7,00.0,30.2,22.9,06.0,0000.0,0015.98,0004.83,0003.82
2022-12-18 06:22:00,,0821.0,5.03,0.00,21.4,20.9,00.0,30.2,23.2,05.9,0000.0,0016.96,0004.83,0003.83
2022-12-18 06:23:00,,0821.1,4.98,0.00,21.5,21.7,00.0,30.2,23.4,05.9,0000.0,0017.27,0004.84,0003.84
2022-12-18 06:24:00,,0821.1,5.01,0.00,21.6,21.6,00.0,30.2,23.5,05.9,0001.7,0017.32,0004.82,0003.85
2022-12-18 06:25:00,,0821.0,4.98,0.00,21.6,21.1,00.0,30.3,23.4,05.9,0003.4,0017.28,0004.84,0003.88
2022-12-18 06:26:00,,0821.0,5.02,0.00,21.5,20.7,00.0,30.3,23.3,05.9,0003.2,0017.77,0004.89,0003.91
2022-12-18 06:27:00,,0820.9,4.97,0.00,21.5,20.4,00.0,30.3,23.2,05.9,0003.1,0018.25,0004.92,0003.90
2022-12-18 06:28:00,,0820.8,5.02,0.00,21.5,20.1,00.0,30.3,23.1,05.9,0003.2,0017.30,0004.98,0003.89
2022-12-18 06:29:00,,0820.9,5.01,0.00,21.5,20.0,00.0,30.3,23.1,05.8,0003.4,0017.17,0005.01,0003.89
2022-12-18 06:30:00,,0820.9,4.96,0.00,21.4,19.7,00.0,30.3,23.0,05.9,0003.2,0016.67,0005.06,0003.89
2022-12-18 06:31:00,,0820.9,5.00,0.00,21.3,19.5,00.0,30.3,22.9,06.0,0003.5,0015.85,0005.07,0003.87
2022-12-18 06:32:00,,0820.9,5.03,0.00,21.3,20.0,00.0,30.3,23.0,06.0,0003.5,0015.02,0005.07,0003.88
2022-12-18 06:33:00,,0820.9,4.99,0.00,21.5,21.1,00.0,30.2,23.3,06.0,0003.8,0013.50,0005.02,0003.89
2022-12-18 06:34:00,,0820.9,4.99,0.00,21.5,21.5,00.0,30.3,23.4,05.9,0004.3,0013.49,0005.00,0003.87
2022-12-18 06:35:00,,0820.9,5.02,0.00,21.6,21.0,00.0,30.3,23.4,05.9,0001.8,0013.48,0005.06,0003.85
2022-12-18 06:36:00,,0820.9,4.97,0.00,21.5,20.7,00.0,30.3,23.3,05.9,0001.1,0013.52,0005.05,0003.82
2022-12-18 06:37:00,,0820.8,5.03,0.00,21.5,20.4,00.0,30.3,23.2,05.9,0002.5,0013.17,0005.01,0003.81
2022-12-18 06:38:00,,0820.8,5.03,0.00,21.5,20.3,00.0,30.3,23.2,05.9,0001.7,0013.42,0005.01,0003.81
2022-12-18 06:39:00,,0820.8,4.96,0.00,21.5,20.2,00.0,30.3,23.2,05.9,0000.7,0013.38,0005.00,0003.81
2022-12-18 06:40:00,,0820.9,5.00,0.00,21.5,19.9,00.0,30.3,23.1,05.9,0000.8,0012.83,0004.96,0003.80
2022-12-18 06:41:00,,0820.9,5.01,0.00,21.4,19.8,00.0,30.3,23.1,06.0,0000.0,0013.30,0004.94,0003.81
2022-12-18 06:42:00,,0820.9,5.03,0.00,21.4,20.1,00.0,30.3,23.1,06.0,0000.0,0014.27,0004.93,0003.83
2022-12-18 06:43:00,,0820.8,4.96,0.00,21.5,21.2,00.0,30.3,23.4,05.9,0000.0,0014.57,0004.94,0003.85
2022-12-18 06:44:00,,0820.6,5.03,0.00,21.6,21.8,00.0,30.3,23.6,05.8,0000.0,0014.34,0004.96,0003.87
2022-12-18 06:45:00,,0820.6,4.96,0.00,21.7,21.4,00.0,30.4,23.6,05.8,0000.0,0014.46,0004.98,0003.90
2022-12-18 06:46:00,,0820.6,5.03,0.00,21.6,21.0,00.0,30.4,23.4,05.8,0000.0,0014.84,0004.96,0003.92
2022-12-18 06:47:00,,0820.7,4.96,0.00,21.6,20.6,00.0,30.4,23.3,05.8,0000.0,0014.33,0004.95,0003.95
2022-12-18 06:48:00,,0820.7,5.02,0.00,21.5,20.0,00.0,30.4,23.1,05.8,0000.0,0014.05,0005.00,0003.96
2022-12-18 06:49:00,,0820.6,5.01,0.00,21.5,19.5,00.0,30.4,22.9,05.9,0000.0,0013.73,0005.00,0003.99
2022-12-18 06:50:00,,0820.6,5.01,0.00,21.4,19.2,00.0,30.4,22.8,06.0,0000.0,0013.98,0004.98,0003.99
2022-12-18 06:51:00,,0820.6,4.97,0.00,21.3,19.5,00.0,30.3,22.8,06.0,0000.0,0014.41,0004.98,0004.03
2022-12-18 06:52:00,,0820.7,5.01,0.00,21.4,20.8,00.0,30.3,23.1,05.9,0000.0,0014.64,0004.99,0004.04
2022-12-18 06:53:00,,0820.6,5.02,0.00,21.5,21.4,00.0,30.3,23.3,05.9,0000.0,0014.52,0005.01,0004.04
2022-12-18 06:54:00,,0820.6,4.97,0.00,21.5,20.9,00.0,30.3,23.2,05.9,0000.0,0014.83,0005.03,0004.04
2022-12-18 06:55:00,,0820.6,5.04,0.00,21.5,20.3,00.0,30.3,23.1,05.9,0000.0,0015.07,0005.05,0004.04
2022-12-18 06:56:00,,0820.6,4.98,0.00,21.4,19.7,00.0,30.3,22.9,06.0,0000.0,0014.67,0005.03,0004.03
2022-12-18 06:57:00,,0820.6,4.97,0.00,21.3,19.2,00.0,30.3,22.7,06.0,0000.6,0014.23,0005.05,0004.03
2022-12-18 06:58:00,,0820.6,5.02,0.00,21.2,19.0,00.0,30.3,22.6,06.0,0001.1,0014.39,0005.08,0004.03
2022-12-18 06:59:00,,0820.6,5.03,0.00,21.2,20.1,00.0,30.2,22.9,06.0,0002.1,0014.55,0005.06,0004.01
